Location: Goudex
(43.3760°N, 0.9543°E)
Time: 12:28:26
(UTC+00:00)

ALOS - Visible Passes

Search period start: 18 February 2020 00:00
Search period end: 28 February 2020 00:00
Orbit: 683 x 686 km, 97.8° (Epoch: 18 February)

Date Brightness Start Highest point End Pass type
(mag) Time Alt. Az. Time Alt. Az. Time Alt. Az.
18 Feb 4.5 04:16:45 10° NE 04:20:31 24° E 04:24:16 10° SSE visible
18 Feb 2.8 05:53:44 10° N 05:58:02 37° WNW 06:02:18 10° SW visible
19 Feb 2.9 04:53:19 10° NNE 04:57:55 56° E 05:02:29 10° S visible
20 Feb 5.2 03:54:47 10° ENE 03:57:18 14° E 03:59:47 10° ESE visible
20 Feb 2.2 05:30:30 10° N 05:35:08 62° WNW 05:39:43 10° SSW visible
21 Feb 4.0 04:30:36 10° NNE 04:34:50 33° E 04:39:01 10° SSE visible
21 Feb 3.2 06:08:12 10° N 06:12:07 27° WNW 06:16:02 10° SW visible
22 Feb 2.4 05:07:27 10° NNE 05:12:09 79° ESE 05:16:49 10° S visible
23 Feb 4.8 04:08:14 10° NE 04:11:39 20° E 04:15:03 10° SE visible
23 Feb 2.6 05:44:50 10° N 05:49:16 44° WNW 05:53:41 10° SW visible
24 Feb 3.3 04:44:35 10° NNE 04:49:06 46° E 04:53:34 10° S visible
25 Feb 5.4 03:46:44 10° ENE 03:48:23 12° E 03:50:03 10° ESE visible
25 Feb 2.2 05:21:40 10° N 05:26:20 75° WNW 05:31:00 10° SSW visible
26 Feb 4.3 04:21:59 10° NE 04:25:58 27° E 04:29:56 10° SSE visible
26 Feb 3.0 05:59:14 10° N 06:03:23 32° WNW 06:07:31 10° SW visible
27 Feb 2.7 04:58:41 10° NNE 05:03:20 65° E 05:07:58 10° S visible
